Location: Unspecified
(0.0000°N, 0.0000°E)
Time: 02:06:08
(UTC+01:00)

Orbus 21S - Visible Passes

Search period start: 21 December 2014 00:00
Search period end: 31 December 2014 00:00
Orbit: 300 x 33447 km, 24.1° (Epoch: 19 December)

Date Brightness Start Highest point End Pass type
(mag) Time Alt. Az. Time Alt. Az. Time Alt. Az.
21 Dec 6.1 04:00:56 11° NE 04:00:56 11° NE 03:36:29 34° W visible
21 Dec 7.1 14:11:30 10° WNW 14:26:23 85° SSW 23:12:10 34° E visible
23 Dec 5.5 04:29:06 10° W 05:02:17 14° N 05:02:52 10° NNE visible
23 Dec 7.6 15:15:30 10° W 23:55:00 73° SSE 00:11:28 62° ESE visible
25 Dec 7.5 16:20:46 10° W 01:10:50 82° SSW 01:10:50 82° SSW visible
26 Dec 5.7 11:42:57 10° NW 11:49:28 53° NE 20:37:43 10° E visible
27 Dec 7.8 17:28:17 10° W 02:10:15 55° W 02:10:15 55° W visible
28 Dec 6.3 12:45:07 10° WNW 12:54:24 82° NNE 21:46:02 19° E visible
29 Dec 8.2 18:40:13 10° WSW 03:09:40 31° W 03:09:40 31° W visible
30 Dec 7.1 13:47:52 10° WNW 14:02:42 79° SSW 22:45:28 41° E visible
